Weather History for Gaylord, MI

Change the Weather History Date:

Sunday, April 6, 2014

  Actual Average Record
Temperature  
Mean Temperature 38 °F -  
Max Temperature 48 °F 46 °F 76 °F (1991)
Min Temperature 28 °F 25 °F -4 °F (2003)
Degree Days  
Heating Degree Days 27    
Moisture  
Dew Point 22 °F    
Average Humidity 53    
Maximum Humidity 67    
Minimum Humidity 37    
Precipitation  
Precipitation 0.00 in - - ()
Sea Level Pressure  
Sea Level Pressure 30.06 in    
Wind  
Wind Speed 9 mph (SW)    
Max Wind Speed 15 mph    
Max Gust Speed 22 mph    
Visibility 10 miles    
Events      
Averages and records for this station are not official NWS values.
T = Trace of Precipitation, MM = Missing Value Source: NWS Daily Summary

Daily Weather History Graph

Daily Weather History Graph

Search for Another Location

Airport:

Trip Planner

Search our weather history database for the weather conditions in past years. The results will help you decide how hot, cold, wet, or windy it might be!

Date:

Astronomy

Apr. 06, 2014 Rise Set
Actual Time 7:10 AM EDT 8:12 PM EDT
Civil Twilight 6:40 AM EDT 8:43 PM EDT
Nautical Twilight 6:04 AM EDT 9:18 PM EDT
Astronomical Twilight 5:26 AM EDT 9:56 PM EDT
Moon 12:01 PM EDT (4/6) 2:16 AM EDT (4/6)
Length of Visible Light 14h 02m
Length of Day
13h 02m
Waxing Crescent, 43% of the Moon is Illuminated
Apr 6
Waxing Crescent
Apr 7
First Quarter
Apr 15
Full
Apr 22
Last Quarter
Apr 29
New

Hourly Weather History & Observations

Time (EDT) Temp. Windchill Dew Point Humidity Pressure Visibility Wind Dir Wind Speed Gust Speed Precip Events Conditions
12:53 AM 28.0 °F 24.2 °F 16.0 °F 61% 30.12 in 10.0 mi SW 3.5 mph - N/A   Clear
1:53 AM 30.0 °F 20.5 °F 18.0 °F 61% 30.12 in 10.0 mi WSW 11.5 mph - N/A   Clear
2:53 AM 30.0 °F 21.1 °F 19.0 °F 64% 30.11 in 10.0 mi WSW 10.4 mph - N/A   Clear
3:53 AM 30.0 °F 21.7 °F 19.0 °F 64% 30.10 in 10.0 mi SW 9.2 mph - N/A   Clear
4:53 AM 28.9 °F 19.8 °F 19.0 °F 67% 30.10 in 10.0 mi SW 10.4 mph - N/A   Clear
5:53 AM 28.9 °F 19.8 °F 19.0 °F 67% 30.10 in 10.0 mi SW 10.4 mph - N/A   Clear
6:53 AM 28.9 °F 21.1 °F 19.0 °F 67% 30.11 in 10.0 mi WSW 8.1 mph - N/A   Clear
7:53 AM 30.0 °F 21.7 °F 19.9 °F 66% 30.12 in 10.0 mi WSW 9.2 mph - N/A   Clear
8:53 AM 32.0 °F 24.2 °F 21.9 °F 66% 30.12 in 10.0 mi WSW 9.2 mph - N/A   Clear
9:53 AM 37.0 °F 29.3 °F 24.1 °F 59% 30.12 in 10.0 mi WSW 11.5 mph - N/A   Clear
10:53 AM 43.0 °F 36.0 °F 25.0 °F 49% 30.12 in 10.0 mi WSW 13.8 mph 21.9 mph N/A   Mostly Cloudy
11:53 AM 44.1 °F 39.5 °F 26.1 °F 49% 30.11 in 10.0 mi WSW 8.1 mph - N/A   Scattered Clouds
12:53 PM 46.9 °F - 25.0 °F 42% 30.09 in 10.0 mi WSW 15.0 mph - N/A   Clear
1:53 PM 46.0 °F 40.2 °F 25.0 °F 44% 30.07 in 10.0 mi WSW 12.7 mph - N/A   Clear
2:53 PM 46.9 °F - 23.0 °F 39% 30.04 in 10.0 mi SSW 10.4 mph - N/A   Clear
3:53 PM 46.9 °F - 23.0 °F 39% 30.02 in 10.0 mi SW 11.5 mph - N/A   Clear
4:53 PM 48.0 °F - 25.0 °F 41% 30.00 in 10.0 mi South 9.2 mph - N/A   Clear
5:53 PM 48.0 °F - 23.0 °F 37% 29.99 in 10.0 mi South 9.2 mph - N/A   Clear
6:53 PM 46.9 °F - 24.1 °F 41% 29.99 in 10.0 mi SSW 8.1 mph - N/A   Clear
7:53 PM 46.0 °F 42.5 °F 24.1 °F 42% 30.00 in 10.0 mi SSW 6.9 mph - N/A   Clear
8:53 PM 45.0 °F 40.6 °F 24.1 °F 44% 30.00 in 10.0 mi SSW 8.1 mph - N/A   Clear
9:53 PM 44.1 °F 38.6 °F 24.1 °F 45% 30.00 in 10.0 mi SSW 10.4 mph - N/A   Overcast
10:53 PM 42.1 °F 37.1 °F 25.0 °F 51% 30.00 in 10.0 mi South 8.1 mph - N/A   Clear
11:53 PM 39.9 °F 34.5 °F 25.0 °F 55% 29.99 in 10.0 mi South 8.1 mph - N/A   Clear